Time,TemperatureF,DewpointF,PressureIn,WindDirection,WindDirectionDegrees,WindSpeedMPH,WindSpeedGustMPH,Humidity,HourlyPrecipIn,Conditions,Clouds,dailyrainin,SoftwareType,DateUTC
2013-08-11 00:02:00,47.8,46.7,28.06,WSW,238,0.0,0.0,96,0.00,,---,0.00,VWS V14.01,2013-08-11 05:02:00,
2013-08-11 00:07:00,47.6,46.5,28.06,WSW,238,0.0,0.0,96,0.00,,---,0.00,VWS V14.01,2013-08-11 05:07:00,
2013-08-11 00:13:00,47.4,46.3,28.06,WSW,238,0.0,0.0,96,0.00,,---,0.00,VWS V14.01,2013-08-11 05:13:00,
2013-08-11 00:17:00,47.5,46.4,28.06,WSW,238,0.0,0.0,96,0.00,,---,0.00,VWS V14.01,2013-08-11 05:17:00,
2013-08-11 00:23:00,47.7,46.6,28.06,WSW,238,0.0,0.0,96,0.00,,---,0.00,VWS V14.01,2013-08-11 05:23:00,
2013-08-11 00:28:00,47.7,46.6,28.06,WSW,238,0.0,0.0,96,0.00,,---,0.00,VWS V14.01,2013-08-11 05:28:00,
2013-08-11 00:33:00,47.7,46.6,28.06,WSW,238,0.0,0.0,96,0.00,,---,0.00,VWS V14.01,2013-08-11 05:33:00,
2013-08-11 00:38:00,47.6,46.5,28.06,WSW,238,0.0,0.0,96,0.00,,---,0.00,VWS V14.01,2013-08-11 05:38:00,
2013-08-11 00:43:00,47.5,46.4,28.06,WSW,238,0.0,0.0,96,0.00,,---,0.00,VWS V14.01,2013-08-11 05:43:00,
2013-08-11 00:48:00,47.5,46.4,28.06,WSW,238,0.0,0.0,96,0.00,,---,0.00,VWS V14.01,2013-08-11 05:48:00,
2013-08-11 00:53:00,47.4,46.3,28.06,WSW,238,0.0,0.0,96,0.00,,---,0.00,VWS V14.01,2013-08-11 05:53:00,
2013-08-11 00:59:00,47.3,46.2,28.06,WSW,238,0.0,0.0,96,0.00,,---,0.00,VWS V14.01,2013-08-11 05:59:00,
2013-08-11 01:04:00,47.0,45.9,28.06,WSW,238,0.0,0.0,96,0.00,,---,0.00,VWS V14.01,2013-08-11 06:04:00,
2013-08-11 01:09:00,46.7,45.6,28.06,WSW,238,0.0,0.0,96,0.00,,---,0.00,VWS V14.01,2013-08-11 06:09:00,
2013-08-11 01:14:00,46.4,45.3,28.06,WSW,238,0.0,0.0,96,0.00,,---,0.00,VWS V14.01,2013-08-11 06:14:00,
2013-08-11 01:19:00,46.4,45.6,28.06,WSW,238,0.0,0.0,97,0.00,,---,0.00,VWS V14.01,2013-08-11 06:19:00,
2013-08-11 01:25:00,46.7,45.9,28.06,WSW,238,0.0,0.0,97,0.00,,---,0.00,VWS V14.01,2013-08-11 06:25:00,
2013-08-11 01:30:00,46.8,46.0,28.06,WSW,238,0.0,0.0,97,0.00,,---,0.00,VWS V14.01,2013-08-11 06:30:00,
2013-08-11 01:36:00,46.7,45.9,28.05,WSW,238,0.0,0.0,97,0.00,,---,0.00,VWS V14.01,2013-08-11 06:36:00,
2013-08-11 01:41:00,46.5,45.7,28.05,WSW,238,0.0,0.0,97,0.00,,---,0.00,VWS V14.01,2013-08-11 06:41:00,
2013-08-11 01:46:00,46.7,45.9,28.06,WSW,238,0.0,0.0,97,0.00,,---,0.00,VWS V14.01,2013-08-11 06:46:00,
2013-08-11 01:51:00,46.8,46.0,28.06,WSW,238,0.0,0.0,97,0.00,,---,0.00,VWS V14.01,2013-08-11 06:51:00,
2013-08-11 01:56:00,46.8,46.0,28.06,WSW,238,0.0,0.0,97,0.00,,---,0.00,VWS V14.01,2013-08-11 06:56:00,
2013-08-11 02:01:00,46.7,45.9,28.06,WSW,238,0.0,0.0,97,0.00,,---,0.00,VWS V14.01,2013-08-11 07:01:00,
2013-08-11 02:07:00,46.8,46.0,28.06,WSW,238,0.0,0.0,97,0.00,,---,0.00,VWS V14.01,2013-08-11 07:07:00,
2013-08-11 02:12:00,46.8,46.0,28.06,WSW,238,0.0,0.0,97,0.00,,---,0.00,VWS V14.01,2013-08-11 07:12:00,
2013-08-11 02:17:00,46.8,46.0,28.06,WSW,238,0.0,0.0,97,0.00,,---,0.00,VWS V14.01,2013-08-11 07:17:00,
2013-08-11 02:22:00,46.7,45.9,28.06,WSW,238,0.0,0.0,97,0.00,,---,0.00,VWS V14.01,2013-08-11 07:22:00,
2013-08-11 02:27:00,46.9,46.1,28.06,WSW,238,0.0,0.0,97,0.00,,---,0.00,VWS V14.01,2013-08-11 07:27:00,
2013-08-11 02:32:00,47.0,46.2,28.06,WSW,238,0.0,0.0,97,0.00,,---,0.00,VWS V14.01,2013-08-11 07:32:00,
2013-08-11 02:37:00,47.0,46.2,28.06,WSW,238,0.0,0.0,97,0.00,,---,0.00,VWS V14.01,2013-08-11 07:37:00,
2013-08-11 02:42:00,46.9,46.1,28.06,WSW,238,0.0,0.0,97,0.00,,---,0.00,VWS V14.01,2013-08-11 07:42:00,
2013-08-11 02:47:00,46.8,46.0,28.06,WSW,238,0.0,0.0,97,0.00,,---,0.00,VWS V14.01,2013-08-11 07:47:00,
2013-08-11 02:52:00,46.8,46.0,28.06,WSW,238,0.0,0.0,97,0.00,,---,0.00,VWS V14.01,2013-08-11 07:52:00,
2013-08-11 02:57:00,46.9,46.1,28.06,WSW,238,0.0,0.0,97,0.00,,---,0.00,VWS V14.01,2013-08-11 07:57:00,
2013-08-11 03:03:00,47.0,46.2,28.06,WSW,238,0.0,0.0,97,0.00,,---,0.00,VWS V14.01,2013-08-11 08:03:00,
2013-08-11 03:08:00,47.0,46.2,28.06,WSW,238,0.0,0.0,97,0.00,,---,0.00,VWS V14.01,2013-08-11 08:08:00,
2013-08-11 03:13:00,47.0,46.2,28.06,WSW,238,0.0,0.0,97,0.00,,---,0.00,VWS V14.01,2013-08-11 08:13:00,
2013-08-11 03:18:00,47.1,46.3,28.06,WSW,238,0.0,0.0,97,0.00,,---,0.00,VWS V14.01,2013-08-11 08:18:00,
2013-08-11 03:23:00,47.2,46.4,28.06,WSW,238,0.0,0.0,97,0.00,,---,0.00,VWS V14.01,2013-08-11 08:23:00,
2013-08-11 03:28:00,47.3,46.5,28.06,WSW,238,0.0,0.0,97,0.00,,---,0.00,VWS V14.01,2013-08-11 08:28:00,
2013-08-11 03:33:00,47.5,46.7,28.06,WSW,238,0.0,0.0,97,0.00,,---,0.00,VWS V14.01,2013-08-11 08:33:00,
2013-08-11 03:38:00,47.6,46.8,28.06,WSW,238,0.0,0.0,97,0.00,,---,0.00,VWS V14.01,2013-08-11 08:38:00,
2013-08-11 03:44:00,47.7,46.9,28.06,WSW,238,0.0,0.0,97,0.00,,---,0.00,VWS V14.01,2013-08-11 08:44:00,
2013-08-11 03:49:00,47.9,47.1,28.06,WSW,238,0.0,0.0,97,0.00,,---,0.00,VWS V14.01,2013-08-11 08:49:00,
2013-08-11 03:54:00,48.0,47.2,28.06,WSW,238,0.0,0.0,97,0.00,,---,0.00,VWS V14.01,2013-08-11 08:54:00,
2013-08-11 03:59:00,48.1,47.3,28.06,WSW,238,0.0,0.0,97,0.00,,---,0.00,VWS V14.01,2013-08-11 08:59:00,
2013-08-11 04:04:00,48.3,47.8,28.06,WSW,238,0.0,0.0,98,0.00,,---,0.00,VWS V14.01,2013-08-11 09:04:00,
2013-08-11 04:10:00,48.5,47.7,28.06,WSW,238,0.0,0.0,97,0.00,,---,0.00,VWS V14.01,2013-08-11 09:10:00,
2013-08-11 04:15:00,48.6,47.8,28.06,WSW,238,0.0,0.0,97,0.00,,---,0.00,VWS V14.01,2013-08-11 09:15:00,
2013-08-11 04:20:00,48.7,48.2,28.06,WSW,238,0.0,0.0,98,0.00,,---,0.00,VWS V14.01,2013-08-11 09:20:00,
2013-08-11 04:25:00,48.8,48.3,28.06,WSW,238,0.0,0.0,98,0.00,,---,0.00,VWS V14.01,2013-08-11 09:25:00,
2013-08-11 04:30:00,48.7,48.2,28.06,WSW,238,0.0,0.0,98,0.00,,---,0.00,VWS V14.01,2013-08-11 09:30:00,
2013-08-11 04:35:00,48.7,48.2,28.06,WSW,238,0.0,0.0,98,0.00,,---,0.00,VWS V14.01,2013-08-11 09:35:00,
2013-08-11 04:40:00,48.7,48.2,28.06,WSW,238,0.0,0.0,98,0.00,,---,0.00,VWS V14.01,2013-08-11 09:40:00,
2013-08-11 04:45:00,49.0,48.2,28.06,WSW,238,0.0,0.0,97,0.00,,---,0.00,VWS V14.01,2013-08-11 09:45:00,
2013-08-11 04:50:00,49.1,48.3,28.06,WSW,238,0.0,0.0,97,0.00,,---,0.00,VWS V14.01,2013-08-11 09:50:00,
2013-08-11 04:55:00,49.2,48.7,28.06,WSW,238,0.0,0.0,98,0.00,,---,0.00,VWS V14.01,2013-08-11 09:55:00,
2013-08-11 05:01:00,49.2,48.7,28.06,WSW,238,0.0,0.0,98,0.00,,---,0.00,VWS V14.01,2013-08-11 10:01:00,
2013-08-11 05:06:00,49.2,48.7,28.06,WSW,238,0.0,0.0,98,0.00,,---,0.00,VWS V14.01,2013-08-11 10:06:00,
2013-08-11 05:11:00,49.3,48.8,28.06,WSW,238,0.0,0.0,98,0.00,,---,0.00,VWS V14.01,2013-08-11 10:11:00,
2013-08-11 05:16:00,49.7,49.2,28.06,WSW,238,0.0,0.0,98,0.00,,---,0.00,VWS V14.01,2013-08-11 10:16:00,
2013-08-11 05:22:00,50.0,49.5,28.06,WSW,238,0.0,0.0,98,0.00,,---,0.00,VWS V14.01,2013-08-11 10:22:00,
2013-08-11 05:27:00,50.2,49.7,28.06,WSW,238,0.0,0.0,98,0.00,,---,0.00,VWS V14.01,2013-08-11 10:27:00,
2013-08-11 05:32:00,50.3,49.8,28.05,WSW,238,0.0,0.0,98,0.00,,---,0.00,VWS V14.01,2013-08-11 10:32:00,
2013-08-11 05:37:00,50.3,49.8,28.05,WSW,238,0.0,0.0,98,0.00,,---,0.00,VWS V14.01,2013-08-11 10:37:00,
2013-08-11 05:42:00,50.1,49.6,28.05,WSW,238,0.0,0.0,98,0.00,,---,0.00,VWS V14.01,2013-08-11 10:42:00,
2013-08-11 05:47:00,50.0,49.5,28.06,WSW,238,0.0,0.0,98,0.00,,---,0.00,VWS V14.01,2013-08-11 10:47:00,
2013-08-11 05:52:00,49.8,49.3,28.06,WSW,238,0.0,0.0,98,0.00,,---,0.00,VWS V14.01,2013-08-11 10:52:00,
2013-08-11 05:57:00,49.7,49.2,28.06,WSW,238,0.0,0.0,98,0.00,,---,0.00,VWS V14.01,2013-08-11 10:57:00,
2013-08-11 06:02:00,49.6,49.1,28.06,WSW,238,0.0,0.0,98,0.00,,---,0.00,VWS V14.01,2013-08-11 11:02:00,
2013-08-11 06:08:00,49.5,49.0,28.06,WSW,238,0.0,0.0,98,0.00,,---,0.00,VWS V14.01,2013-08-11 11:08:00,
2013-08-11 06:13:00,49.7,49.2,28.06,WSW,238,0.0,0.0,98,0.00,,---,0.00,VWS V14.01,2013-08-11 11:13:00,
2013-08-11 06:18:00,49.9,49.4,28.06,WSW,238,0.0,0.0,98,0.00,,---,0.00,VWS V14.01,2013-08-11 11:18:00,
2013-08-11 06:23:00,50.2,49.7,28.06,WSW,238,0.0,0.0,98,0.00,,---,0.00,VWS V14.01,2013-08-11 11:23:00,
2013-08-11 06:28:00,50.5,50.0,28.06,WSW,238,0.0,0.0,98,0.00,,---,0.00,VWS V14.01,2013-08-11 11:28:00,
2013-08-11 06:33:00,50.7,50.2,28.06,WSW,238,0.0,0.0,98,0.00,,---,0.00,VWS V14.01,2013-08-11 11:33:00,
2013-08-11 06:38:00,50.8,50.3,28.06,WSW,238,0.0,0.0,98,0.00,,---,0.00,VWS V14.01,2013-08-11 11:38:00,
2013-08-11 06:43:00,50.8,50.3,28.06,WSW,238,0.0,0.0,98,0.00,,---,0.00,VWS V14.01,2013-08-11 11:43:00,
2013-08-11 06:48:00,50.9,50.4,28.06,WSW,238,0.0,0.0,98,0.00,,---,0.00,VWS V14.01,2013-08-11 11:48:00,
2013-08-11 06:53:00,51.1,50.6,28.06,WSW,238,0.0,0.0,98,0.00,,---,0.00,VWS V14.01,2013-08-11 11:53:00,
2013-08-11 06:59:00,51.3,50.8,28.06,WSW,238,0.0,2.0,98,0.00,,---,0.00,VWS V14.01,2013-08-11 11:59:00,
2013-08-11 07:05:00,51.7,51.2,28.06,WSW,250,0.0,2.0,98,0.00,,---,0.00,VWS V14.01,2013-08-11 12:05:00,
2013-08-11 07:10:00,52.0,51.5,28.06,WSW,248,1.0,1.0,98,0.00,,---,0.00,VWS V14.01,2013-08-11 12:10:00,
2013-08-11 07:15:00,52.4,51.8,28.06,WSW,247,0.0,0.0,98,0.00,,---,0.00,VWS V14.01,2013-08-11 12:15:00,
2013-08-11 07:20:00,52.8,52.2,28.07,WSW,247,0.0,0.0,98,0.00,,---,0.00,VWS V14.01,2013-08-11 12:20:00,
2013-08-11 07:25:00,53.0,52.5,28.07,WSW,249,0.0,0.0,98,0.00,,---,0.00,VWS V14.01,2013-08-11 12:25:00,
2013-08-11 07:30:00,53.2,52.7,28.07,WSW,249,0.0,3.0,98,0.00,,---,0.00,VWS V14.01,2013-08-11 12:30:00,
2013-08-11 07:35:00,53.3,52.8,28.07,WSW,249,0.0,0.0,98,0.00,,---,0.00,VWS V14.01,2013-08-11 12:35:00,
2013-08-11 07:41:00,53.4,52.8,28.07,WSW,249,0.0,1.0,98,0.00,,---,0.00,VWS V14.01,2013-08-11 12:41:00,
2013-08-11 07:46:00,53.5,53.0,28.07,WSW,249,0.0,0.0,98,0.00,,---,0.00,VWS V14.01,2013-08-11 12:46:00,
2013-08-11 07:51:00,53.6,53.0,28.06,WSW,249,0.0,0.0,98,0.00,,---,0.00,VWS V14.01,2013-08-11 12:51:00,
2013-08-11 07:56:00,53.7,53.2,28.06,WSW,249,0.0,0.0,98,0.00,,---,0.00,VWS V14.01,2013-08-11 12:56:00,
2013-08-11 08:02:00,53.9,53.3,28.06,WSW,249,0.0,0.0,98,0.00,,---,0.00,VWS V14.01,2013-08-11 13:02:00,
2013-08-11 08:07:00,54.0,53.5,28.06,WSW,249,0.0,0.0,98,0.00,,---,0.00,VWS V14.01,2013-08-11 13:07:00,
2013-08-11 08:12:00,54.1,53.5,28.06,WSW,249,0.0,0.0,98,0.00,,---,0.00,VWS V14.01,2013-08-11 13:12:00,
2013-08-11 08:17:00,54.2,53.7,28.07,WSW,249,0.0,0.0,98,0.00,,---,0.00,VWS V14.01,2013-08-11 13:17:00,
2013-08-11 08:22:00,54.3,53.8,28.07,WSW,249,0.0,0.0,98,0.00,,---,0.00,VWS V14.01,2013-08-11 13:22:00,
2013-08-11 08:27:00,54.5,54.0,28.07,WSW,249,0.0,0.0,98,0.01,,---,0.01,VWS V14.01,2013-08-11 13:27:00,
2013-08-11 08:32:00,54.5,54.0,28.06,WSW,249,0.0,0.0,98,0.01,,---,0.01,VWS V14.01,2013-08-11 13:32:00,
2013-08-11 08:37:00,54.6,54.0,28.06,WSW,249,0.0,0.0,98,0.01,,---,0.01,VWS V14.01,2013-08-11 13:37:00,
2013-08-11 08:42:00,54.9,54.3,28.06,WSW,249,0.0,0.0,98,0.01,,---,0.01,VWS V14.01,2013-08-11 13:42:00,
2013-08-11 08:47:00,55.1,54.5,28.07,WSW,249,0.0,0.0,98,0.01,,---,0.01,VWS V14.01,2013-08-11 13:47:00,
2013-08-11 08:53:00,55.3,54.8,28.07,WSW,249,0.0,0.0,98,0.01,,---,0.01,VWS V14.01,2013-08-11 13:53:00,
2013-08-11 08:58:00,55.5,55.0,28.07,WSW,249,0.0,0.0,98,0.01,,---,0.01,VWS V14.01,2013-08-11 13:58:00,
2013-08-11 09:03:00,55.7,55.2,28.06,WSW,249,0.0,0.0,98,0.01,,---,0.01,VWS V14.01,2013-08-11 14:03:00,
2013-08-11 09:08:00,55.9,55.3,28.06,WSW,249,0.0,0.0,98,0.01,,---,0.01,VWS V14.01,2013-08-11 14:08:00,
2013-08-11 09:13:00,56.0,55.5,28.06,WSW,249,0.0,0.0,98,0.01,,---,0.01,VWS V14.01,2013-08-11 14:13:00,
2013-08-11 09:19:00,56.2,55.7,28.06,WSW,249,0.0,0.0,98,0.01,,---,0.01,VWS V14.01,2013-08-11 14:19:00,
2013-08-11 09:24:00,56.3,55.8,28.06,WSW,249,0.0,0.0,98,0.01,,---,0.01,VWS V14.01,2013-08-11 14:24:00,
2013-08-11 09:29:00,56.3,55.8,28.06,WSW,249,0.0,0.0,98,0.00,,---,0.01,VWS V14.01,2013-08-11 14:29:00,
2013-08-11 09:34:00,56.8,56.2,28.06,WSW,249,0.0,1.0,98,0.00,,---,0.01,VWS V14.01,2013-08-11 14:34:00,
2013-08-11 09:39:00,56.7,56.1,28.06,WSW,249,0.0,0.0,98,0.00,,---,0.01,VWS V14.01,2013-08-11 14:39:00,
2013-08-11 09:44:00,57.2,56.4,28.06,WSW,249,0.0,0.0,97,0.00,,---,0.01,VWS V14.01,2013-08-11 14:44:00,
2013-08-11 09:49:00,58.0,56.9,28.05,WSW,249,0.0,1.0,96,0.00,,---,0.01,VWS V14.01,2013-08-11 14:49:00,
2013-08-11 09:55:00,58.7,57.0,28.05,WSW,249,0.0,0.0,94,0.00,,---,0.01,VWS V14.01,2013-08-11 14:55:00,
2013-08-11 10:00:00,59.3,57.0,28.05,WSW,249,0.0,1.0,92,0.00,,---,0.01,VWS V14.01,2013-08-11 15:00:00,
2013-08-11 10:05:00,60.1,56.8,28.05,WSW,249,0.0,0.0,89,0.00,,---,0.01,VWS V14.01,2013-08-11 15:05:00,
2013-08-11 10:10:00,61.2,58.2,28.05,WSW,249,0.0,0.0,90,0.00,,---,0.01,VWS V14.01,2013-08-11 15:10:00,
2013-08-11 10:15:00,62.0,57.1,28.05,WSW,249,0.0,0.0,84,0.00,,---,0.01,VWS V14.01,2013-08-11 15:15:00,
2013-08-11 10:20:00,62.7,57.5,28.05,WSW,249,1.0,1.0,83,0.00,,---,0.01,VWS V14.01,2013-08-11 15:20:00,
2013-08-11 10:25:00,63.5,56.5,28.05,West,261,2.0,3.0,78,0.00,,---,0.01,VWS V14.01,2013-08-11 15:25:00,
2013-08-11 10:31:00,64.5,56.0,28.05,West,261,0.0,1.0,74,0.00,,---,0.01,VWS V14.01,2013-08-11 15:31:00,
2013-08-11 10:36:00,65.6,56.0,28.05,West,261,0.0,0.0,71,0.00,,---,0.01,VWS V14.01,2013-08-11 15:36:00,
2013-08-11 10:41:00,66.8,55.1,28.05,West,261,0.0,2.0,66,0.00,,---,0.01,VWS V14.01,2013-08-11 15:41:00,
2013-08-11 10:47:00,67.5,55.8,28.05,WSW,242,1.0,2.0,66,0.00,,---,0.01,VWS V14.01,2013-08-11 15:47:00,
2013-08-11 10:52:00,67.7,54.7,28.05,WNW,290,0.0,4.0,63,0.00,,---,0.01,VWS V14.01,2013-08-11 15:52:00,
2013-08-11 10:58:00,68.0,55.0,28.05,WNW,288,2.0,4.0,63,0.00,,---,0.01,VWS V14.01,2013-08-11 15:58:00,
2013-08-11 11:03:00,67.4,54.8,28.05,NNW,348,0.0,3.0,64,0.00,,---,0.01,VWS V14.01,2013-08-11 16:03:00,
2013-08-11 11:08:00,68.0,55.8,28.05,NNW,338,2.0,3.0,65,0.00,,---,0.01,VWS V14.01,2013-08-11 16:08:00,
2013-08-11 11:13:00,68.1,54.2,28.05,NW,320,3.0,5.0,61,0.00,,---,0.01,VWS V14.01,2013-08-11 16:13:00,
2013-08-11 11:18:00,67.4,55.2,28.05,NNW,332,4.0,4.0,65,0.00,,---,0.01,VWS V14.01,2013-08-11 16:18:00,
2013-08-11 11:23:00,66.9,53.9,28.05,West,281,4.0,4.0,63,0.00,,---,0.01,VWS V14.01,2013-08-11 16:23:00,
2013-08-11 11:28:00,67.5,54.9,28.05,WNW,282,0.0,0.0,64,0.00,,---,0.01,VWS V14.01,2013-08-11 16:28:00,
2013-08-11 11:33:00,68.2,53.3,28.05,NNW,336,6.0,6.0,59,0.00,,---,0.01,VWS V14.01,2013-08-11 16:33:00,
2013-08-11 11:38:00,67.9,52.6,28.05,WNW,294,2.0,6.0,58,0.00,,---,0.01,VWS V14.01,2013-08-11 16:38:00,
2013-08-11 11:43:00,68.0,52.7,28.05,NW,304,1.0,2.0,58,0.00,,---,0.01,VWS V14.01,2013-08-11 16:43:00,
2013-08-11 11:48:00,68.9,54.5,28.05,WSW,257,0.0,2.0,60,0.00,,---,0.01,VWS V14.01,2013-08-11 16:48:00,
2013-08-11 11:53:00,69.6,55.6,28.05,WNW,296,1.0,3.0,61,0.00,,---,0.01,VWS V14.01,2013-08-11 16:53:00,
2013-08-11 11:58:00,69.3,55.3,28.05,WSW,239,1.0,5.0,61,0.00,,---,0.01,VWS V14.01,2013-08-11 16:58:00,
2013-08-11 12:04:00,69.4,55.8,28.05,West,266,1.0,2.0,62,0.00,,---,0.01,VWS V14.01,2013-08-11 17:04:00,
2013-08-11 12:09:00,69.0,55.5,28.05,WNW,289,2.0,3.0,62,0.00,,---,0.01,VWS V14.01,2013-08-11 17:09:00,
2013-08-11 12:14:00,68.9,55.4,28.05,WNW,288,0.0,1.0,62,0.00,,---,0.01,VWS V14.01,2013-08-11 17:14:00,
2013-08-11 12:19:00,69.0,55.5,28.04,NW,304,0.0,2.0,62,0.00,,---,0.01,VWS V14.01,2013-08-11 17:19:00,
2013-08-11 12:24:00,69.6,55.6,28.04,WNW,296,3.0,3.0,61,0.00,,---,0.01,VWS V14.01,2013-08-11 17:24:00,
2013-08-11 12:29:00,68.8,54.8,28.04,NW,304,0.0,0.0,61,0.00,,---,0.01,VWS V14.01,2013-08-11 17:29:00,
2013-08-11 12:34:00,67.9,54.0,28.04,WNW,303,1.0,1.0,61,0.00,,---,0.01,VWS V14.01,2013-08-11 17:34:00,
2013-08-11 12:39:00,67.2,54.6,28.04,WNW,282,2.0,2.0,64,0.00,,---,0.01,VWS V14.01,2013-08-11 17:39:00,
2013-08-11 12:45:00,67.2,54.2,28.04,West,277,3.0,3.0,63,0.00,,---,0.01,VWS V14.01,2013-08-11 17:45:00,
2013-08-11 12:50:00,67.6,54.6,28.04,WNW,294,2.0,2.0,63,0.00,,---,0.01,VWS V14.01,2013-08-11 17:50:00,
2013-08-11 12:55:00,69.1,56.0,28.04,NNW,342,4.0,6.0,63,0.00,,---,0.01,VWS V14.01,2013-08-11 17:55:00,
2013-08-11 13:00:00,69.4,54.5,28.04,WNW,288,2.0,2.0,59,0.00,,---,0.01,VWS V14.01,2013-08-11 18:00:00,
2013-08-11 13:05:00,69.9,54.9,28.03,West,270,4.0,5.0,59,0.00,,---,0.01,VWS V14.01,2013-08-11 18:05:00,
2013-08-11 13:11:00,69.2,53.8,28.03,West,277,1.0,2.0,58,0.00,,---,0.01,VWS V14.01,2013-08-11 18:11:00,
2013-08-11 13:16:00,68.5,54.1,28.03,West,270,4.0,4.0,60,0.00,,---,0.01,VWS V14.01,2013-08-11 18:16:00,
2013-08-11 13:22:00,67.9,54.8,28.03,West,260,0.0,1.0,63,0.00,,---,0.01,VWS V14.01,2013-08-11 18:22:00,
2013-08-11 13:27:00,69.0,54.1,28.03,West,268,0.0,1.0,59,0.00,,---,0.01,VWS V14.01,2013-08-11 18:27:00,
2013-08-11 13:32:00,69.5,54.6,28.03,WNW,284,1.0,5.0,59,0.00,,---,0.01,VWS V14.01,2013-08-11 18:32:00,
2013-08-11 13:37:00,68.7,55.2,28.03,NNW,342,0.0,0.0,62,0.00,,---,0.01,VWS V14.01,2013-08-11 18:37:00,
2013-08-11 13:42:00,68.0,55.8,28.03,North,350,1.0,1.0,65,0.00,,---,0.01,VWS V14.01,2013-08-11 18:42:00,
2013-08-11 13:47:00,67.5,55.8,28.03,North,350,5.0,5.0,66,0.00,,---,0.01,VWS V14.01,2013-08-11 18:47:00,
2013-08-11 13:53:00,66.7,55.8,28.03,North,5,2.0,5.0,68,0.00,,---,0.01,VWS V14.01,2013-08-11 18:53:00,
2013-08-11 13:58:00,66.5,56.0,28.03,NNE,13,10.0,10.0,69,0.00,,---,0.01,VWS V14.01,2013-08-11 18:58:00,
2013-08-11 14:03:00,66.2,56.1,28.03,North,360,5.0,6.0,70,0.00,,---,0.01,VWS V14.01,2013-08-11 19:03:00,
2013-08-11 14:08:00,64.9,55.7,28.03,NNE,13,2.0,6.0,72,0.00,,---,0.01,VWS V14.01,2013-08-11 19:08:00,
2013-08-11 14:14:00,64.6,56.1,28.03,NW,317,2.0,4.0,74,0.00,,---,0.01,VWS V14.01,2013-08-11 19:14:00,
2013-08-11 14:19:00,64.6,56.1,28.03,WNW,292,1.0,6.0,74,0.00,,---,0.01,VWS V14.01,2013-08-11 19:19:00,
2013-08-11 14:24:00,64.7,56.6,28.03,NW,324,2.0,3.0,75,0.00,,---,0.01,VWS V14.01,2013-08-11 19:24:00,
2013-08-11 14:29:00,65.2,56.7,28.03,North,360,4.0,6.0,74,0.00,,---,0.01,VWS V14.01,2013-08-11 19:29:00,
2013-08-11 14:34:00,65.5,55.9,28.03,NW,317,3.0,5.0,71,0.00,,---,0.01,VWS V14.01,2013-08-11 19:34:00,
2013-08-11 14:40:00,65.8,56.5,28.03,NW,323,1.0,2.0,72,0.00,,---,0.01,VWS V14.01,2013-08-11 19:40:00,
2013-08-11 14:45:00,66.8,57.9,28.03,NW,323,1.0,1.0,73,0.00,,---,0.01,VWS V14.01,2013-08-11 19:45:00,
2013-08-11 14:50:00,68.2,55.6,28.03,NW,315,1.0,4.0,64,0.00,,---,0.01,VWS V14.01,2013-08-11 19:50:00,
2013-08-11 14:56:00,68.0,55.4,28.03,NW,315,2.0,2.0,64,0.00,,---,0.01,VWS V14.01,2013-08-11 19:56:00,
2013-08-11 15:01:00,67.8,55.2,28.03,NNW,333,0.0,3.0,64,0.00,,---,0.01,VWS V14.01,2013-08-11 20:01:00,
2013-08-11 15:06:00,67.5,55.3,28.03,NNW,339,0.0,2.0,65,0.00,,---,0.01,VWS V14.01,2013-08-11 20:06:00,
2013-08-11 15:11:00,67.2,55.5,28.03,WNW,284,0.0,1.0,66,0.00,,---,0.01,VWS V14.01,2013-08-11 20:11:00,
2013-08-11 15:16:00,67.1,55.4,28.03,WNW,292,0.0,3.0,66,0.00,,---,0.01,VWS V14.01,2013-08-11 20:16:00,
2013-08-11 15:21:00,67.1,56.2,28.03,WNW,291,0.0,0.0,68,0.00,,---,0.01,VWS V14.01,2013-08-11 20:21:00,
2013-08-11 15:27:00,67.4,55.7,28.03,WNW,294,1.0,2.0,66,0.00,,---,0.01,VWS V14.01,2013-08-11 20:27:00,
2013-08-11 15:32:00,67.8,55.6,28.03,NW,315,3.0,3.0,65,0.00,,---,0.01,VWS V14.01,2013-08-11 20:32:00,
2013-08-11 15:37:00,68.0,55.0,28.03,West,273,4.0,6.0,63,0.00,,---,0.01,VWS V14.01,2013-08-11 20:37:00,
2013-08-11 15:42:00,68.5,56.3,28.03,WNW,300,2.0,4.0,65,0.00,,---,0.01,VWS V14.01,2013-08-11 20:42:00,
2013-08-11 15:47:00,67.9,55.7,28.02,NW,304,2.0,3.0,65,0.00,,---,0.01,VWS V14.01,2013-08-11 20:47:00,
2013-08-11 15:53:00,67.3,56.0,28.02,NW,304,1.0,1.0,67,0.00,,---,0.01,VWS V14.01,2013-08-11 20:53:00,
2013-08-11 15:58:00,67.4,56.9,28.02,NW,304,0.0,0.0,69,0.00,,---,0.01,VWS V14.01,2013-08-11 20:58:00,
2013-08-11 16:03:00,67.9,56.5,28.02,NW,304,0.0,0.0,67,0.00,,---,0.01,VWS V14.01,2013-08-11 21:03:00,
2013-08-11 16:08:00,68.4,57.8,28.02,NW,304,0.0,0.0,69,0.00,,---,0.01,VWS V14.01,2013-08-11 21:08:00,
2013-08-11 16:13:00,68.9,57.1,28.02,NW,304,0.0,2.0,66,0.00,,---,0.01,VWS V14.01,2013-08-11 21:13:00,
2013-08-11 16:18:00,68.9,56.7,28.02,WNW,296,0.0,1.0,65,0.00,,---,0.01,VWS V14.01,2013-08-11 21:18:00,
2013-08-11 16:23:00,68.7,55.6,28.02,WNW,296,0.0,0.0,63,0.00,,---,0.01,VWS V14.01,2013-08-11 21:23:00,
2013-08-11 16:29:00,68.4,56.2,28.02,WNW,296,0.0,0.0,65,0.00,,---,0.01,VWS V14.01,2013-08-11 21:29:00,
2013-08-11 16:34:00,68.5,56.3,28.01,WNW,296,0.0,1.0,65,0.00,,---,0.01,VWS V14.01,2013-08-11 21:34:00,
2013-08-11 16:39:00,68.8,56.6,28.01,WNW,293,1.0,1.0,65,0.00,,---,0.01,VWS V14.01,2013-08-11 21:39:00,
2013-08-11 16:44:00,68.7,56.0,28.01,WNW,293,1.0,1.0,64,0.00,,---,0.01,VWS V14.01,2013-08-11 21:44:00,
2013-08-11 16:49:00,68.8,56.6,28.01,WNW,293,0.0,2.0,65,0.00,,---,0.01,VWS V14.01,2013-08-11 21:49:00,
2013-08-11 16:54:00,69.2,57.0,28.01,WNW,293,1.0,1.0,65,0.00,,---,0.01,VWS V14.01,2013-08-11 21:54:00,
2013-08-11 17:00:00,69.3,56.2,28.01,WNW,284,0.0,0.0,63,0.00,,---,0.01,VWS V14.01,2013-08-11 22:00:00,
2013-08-11 17:05:00,69.3,57.0,28.01,WNW,284,0.0,2.0,65,0.00,,---,0.01,VWS V14.01,2013-08-11 22:05:00,
2013-08-11 17:10:00,68.7,57.7,28.01,WNW,284,0.0,0.0,68,0.00,,---,0.01,VWS V14.01,2013-08-11 22:10:00,
2013-08-11 17:16:00,68.2,57.7,28.01,WNW,284,0.0,0.0,69,0.00,,---,0.01,VWS V14.01,2013-08-11 22:16:00,
2013-08-11 17:21:00,67.9,57.4,28.01,WNW,284,0.0,0.0,69,0.00,,---,0.01,VWS V14.01,2013-08-11 22:21:00,
2013-08-11 17:26:00,67.6,57.9,28.01,WNW,284,0.0,0.0,71,0.00,,---,0.01,VWS V14.01,2013-08-11 22:26:00,
2013-08-11 17:31:00,66.7,58.2,28.01,SSW,207,0.0,5.0,74,0.00,,---,0.01,VWS V14.01,2013-08-11 22:31:00,
2013-08-11 17:36:00,66.6,58.4,28.01,South,173,0.0,1.0,75,0.00,,---,0.01,VWS V14.01,2013-08-11 22:36:00,
2013-08-11 17:41:00,66.9,58.3,28.01,SSE,156,0.0,2.0,74,0.00,,---,0.01,VWS V14.01,2013-08-11 22:41:00,
2013-08-11 17:47:00,66.9,59.1,28.01,SSE,157,0.0,0.0,76,0.00,,---,0.01,VWS V14.01,2013-08-11 22:47:00,
2013-08-11 17:52:00,66.5,58.7,28.01,SSE,167,0.0,0.0,76,0.00,,---,0.01,VWS V14.01,2013-08-11 22:52:00,
2013-08-11 17:57:00,66.2,58.0,28.01,South,171,1.0,3.0,75,0.00,,---,0.01,VWS V14.01,2013-08-11 22:57:00,
2013-08-11 18:02:00,65.9,58.5,28.01,South,169,0.0,2.0,77,0.00,,---,0.01,VWS V14.01,2013-08-11 23:02:00,
2013-08-11 18:07:00,65.7,58.3,28.01,South,170,0.0,0.0,77,0.00,,---,0.01,VWS V14.01,2013-08-11 23:07:00,
2013-08-11 18:12:00,65.7,58.3,28.01,South,182,1.0,2.0,77,0.00,,---,0.01,VWS V14.01,2013-08-11 23:12:00,
2013-08-11 18:18:00,65.7,58.3,28.01,South,182,2.0,2.0,77,0.00,,---,0.01,VWS V14.01,2013-08-11 23:18:00,
2013-08-11 18:23:00,65.5,58.1,28.01,SW,219,2.0,2.0,77,0.00,,---,0.01,VWS V14.01,2013-08-11 23:23:00,
2013-08-11 18:28:00,65.3,57.9,28.01,SSW,208,3.0,4.0,77,0.00,,---,0.01,VWS V14.01,2013-08-11 23:28:00,
2013-08-11 18:33:00,65.4,58.4,28.00,South,182,0.0,4.0,78,0.00,,---,0.01,VWS V14.01,2013-08-11 23:33:00,
2013-08-11 18:38:00,65.9,58.5,28.00,SSW,201,3.0,3.0,77,0.00,,---,0.01,VWS V14.01,2013-08-11 23:38:00,
2013-08-11 18:44:00,66.2,57.7,28.00,SW,236,0.0,0.0,74,0.00,,---,0.01,VWS V14.01,2013-08-11 23:44:00,
2013-08-11 18:49:00,66.3,57.8,28.00,SW,217,0.0,3.0,74,0.00,,---,0.01,VWS V14.01,2013-08-11 23:49:00,
2013-08-11 18:54:00,65.9,57.4,28.00,WSW,246,0.0,2.0,74,0.00,,---,0.01,VWS V14.01,2013-08-11 23:54:00,
2013-08-11 18:59:00,65.4,58.0,28.00,WSW,251,0.0,0.0,77,0.00,,---,0.01,VWS V14.01,2013-08-11 23:59:00,
2013-08-11 19:04:00,65.0,57.6,28.00,WSW,251,0.0,1.0,77,0.00,,---,0.01,VWS V14.01,2013-08-12 00:04:00,
2013-08-11 19:09:00,64.7,57.3,28.00,WSW,250,0.0,2.0,77,0.00,,---,0.01,VWS V14.01,2013-08-12 00:09:00,
2013-08-11 19:14:00,64.4,57.8,28.00,WSW,250,0.0,0.0,79,0.00,,---,0.01,VWS V14.01,2013-08-12 00:14:00,
2013-08-11 19:19:00,64.1,57.5,28.00,WSW,250,1.0,1.0,79,0.00,,---,0.01,VWS V14.01,2013-08-12 00:19:00,
2013-08-11 19:24:00,63.8,57.9,28.00,WSW,250,0.0,0.0,81,0.00,,---,0.01,VWS V14.01,2013-08-12 00:24:00,
2013-08-11 19:30:00,63.6,57.7,28.00,WSW,250,0.0,0.0,81,0.00,,---,0.01,VWS V14.01,2013-08-12 00:30:00,
2013-08-11 19:35:00,63.4,57.8,28.00,WSW,250,0.0,0.0,82,0.00,,---,0.01,VWS V14.01,2013-08-12 00:35:00,
2013-08-11 19:40:00,63.2,58.0,28.00,WSW,249,0.0,0.0,83,0.00,,---,0.01,VWS V14.01,2013-08-12 00:40:00,
2013-08-11 19:45:00,63.1,57.9,28.00,WSW,249,0.0,0.0,83,0.00,,---,0.01,VWS V14.01,2013-08-12 00:45:00,
2013-08-11 19:50:00,63.1,58.2,28.00,WSW,249,0.0,0.0,84,0.00,,---,0.01,VWS V14.01,2013-08-12 00:50:00,
2013-08-11 19:56:00,63.0,58.1,28.00,WSW,249,0.0,0.0,84,0.00,,---,0.01,VWS V14.01,2013-08-12 00:56:00,
2013-08-11 20:01:00,62.9,58.0,28.00,WSW,249,0.0,0.0,84,0.00,,---,0.01,VWS V14.01,2013-08-12 01:01:00,
2013-08-11 20:06:00,62.8,57.9,28.00,WSW,249,0.0,0.0,84,0.00,,---,0.01,VWS V14.01,2013-08-12 01:06:00,
2013-08-11 20:11:00,62.6,58.0,28.00,WSW,249,0.0,0.0,85,0.00,,---,0.01,VWS V14.01,2013-08-12 01:11:00,
2013-08-11 20:16:00,62.4,57.8,28.00,WSW,249,0.0,0.0,85,0.00,,---,0.01,VWS V14.01,2013-08-12 01:16:00,
2013-08-11 20:21:00,62.1,57.5,28.00,WSW,249,0.0,0.0,85,0.00,,---,0.01,VWS V14.01,2013-08-12 01:21:00,
2013-08-11 20:26:00,61.7,57.5,28.00,WSW,249,0.0,0.0,86,0.00,,---,0.01,VWS V14.01,2013-08-12 01:26:00,
2013-08-11 20:32:00,61.4,57.2,28.00,WSW,249,0.0,0.0,86,0.00,,---,0.01,VWS V14.01,2013-08-12 01:32:00,
2013-08-11 20:37:00,61.0,57.1,28.00,WSW,249,0.0,0.0,87,0.00,,---,0.01,VWS V14.01,2013-08-12 01:37:00,
2013-08-11 20:42:00,60.5,56.9,28.00,WSW,249,0.0,0.0,88,0.00,,---,0.01,VWS V14.01,2013-08-12 01:42:00,
2013-08-11 20:47:00,59.8,56.2,28.00,WSW,249,0.0,0.0,88,0.00,,---,0.01,VWS V14.01,2013-08-12 01:47:00,
2013-08-11 20:52:00,59.2,55.7,28.00,WSW,249,0.0,0.0,88,0.00,,---,0.01,VWS V14.01,2013-08-12 01:52:00,
2013-08-11 20:58:00,59.0,56.1,28.00,WSW,249,0.0,0.0,90,0.00,,---,0.01,VWS V14.01,2013-08-12 01:58:00,
2013-08-11 21:03:00,58.4,55.5,28.00,WSW,249,0.0,0.0,90,0.00,,---,0.01,VWS V14.01,2013-08-12 02:03:00,
2013-08-11 21:08:00,57.9,55.0,28.00,WSW,249,0.0,0.0,90,0.00,,---,0.01,VWS V14.01,2013-08-12 02:08:00,
2013-08-11 21:13:00,57.5,54.9,28.00,WSW,249,0.0,0.0,91,0.00,,---,0.01,VWS V14.01,2013-08-12 02:13:00,
2013-08-11 21:18:00,57.3,55.0,28.00,WSW,249,0.0,0.0,92,0.00,,---,0.01,VWS V14.01,2013-08-12 02:18:00,
2013-08-11 21:23:00,57.0,55.0,28.00,WSW,249,0.0,0.0,93,0.00,,---,0.01,VWS V14.01,2013-08-12 02:23:00,
2013-08-11 21:28:00,56.8,54.8,28.00,WSW,249,0.0,0.0,93,0.00,,---,0.01,VWS V14.01,2013-08-12 02:28:00,
2013-08-11 21:33:00,56.6,54.9,28.00,WSW,249,0.0,0.0,94,0.00,,---,0.01,VWS V14.01,2013-08-12 02:33:00,
2013-08-11 21:38:00,56.3,54.6,28.00,WSW,249,0.0,0.0,94,0.00,,---,0.01,VWS V14.01,2013-08-12 02:38:00,
2013-08-11 21:43:00,56.0,54.3,28.00,WSW,249,0.0,0.0,94,0.00,,---,0.01,VWS V14.01,2013-08-12 02:43:00,
2013-08-11 21:48:00,55.7,54.0,28.00,WSW,249,0.0,0.0,94,0.00,,---,0.01,VWS V14.01,2013-08-12 02:48:00,
2013-08-11 21:53:00,55.4,53.7,28.00,WSW,249,0.0,0.0,94,0.00,,---,0.01,VWS V14.01,2013-08-12 02:53:00,
2013-08-11 21:58:00,55.2,53.5,28.00,WSW,249,0.0,0.0,94,0.00,,---,0.01,VWS V14.01,2013-08-12 02:58:00,
2013-08-11 22:04:00,54.8,53.1,28.00,WSW,249,0.0,0.0,94,0.00,,---,0.01,VWS V14.01,2013-08-12 03:04:00,
2013-08-11 22:09:00,54.6,52.9,28.00,WSW,249,0.0,0.0,94,0.00,,---,0.01,VWS V14.01,2013-08-12 03:09:00,
2013-08-11 22:14:00,54.3,52.9,28.00,WSW,249,0.0,0.0,95,0.00,,---,0.01,VWS V14.01,2013-08-12 03:14:00,
2013-08-11 22:19:00,54.1,52.7,28.00,WSW,249,0.0,0.0,95,0.00,,---,0.01,VWS V14.01,2013-08-12 03:19:00,
2013-08-11 22:24:00,53.9,52.5,28.00,WSW,249,0.0,0.0,95,0.00,,---,0.01,VWS V14.01,2013-08-12 03:24:00,
2013-08-11 22:29:00,53.6,52.2,28.00,WSW,249,0.0,0.0,95,0.00,,---,0.01,VWS V14.01,2013-08-12 03:29:00,
2013-08-11 22:34:00,53.4,52.0,28.00,WSW,249,0.0,0.0,95,0.00,,---,0.01,VWS V14.01,2013-08-12 03:34:00,
2013-08-11 22:39:00,53.3,51.9,28.00,WSW,249,0.0,0.0,95,0.00,,---,0.01,VWS V14.01,2013-08-12 03:39:00,
2013-08-11 22:44:00,53.2,51.8,28.00,WSW,249,0.0,0.0,95,0.00,,---,0.01,VWS V14.01,2013-08-12 03:44:00,
2013-08-11 22:49:00,53.0,51.9,28.00,WSW,249,0.0,0.0,96,0.00,,---,0.01,VWS V14.01,2013-08-12 03:49:00,
2013-08-11 22:54:00,52.9,51.8,28.00,WSW,249,0.0,0.0,96,0.00,,---,0.01,VWS V14.01,2013-08-12 03:54:00,
2013-08-11 23:00:00,52.9,51.8,28.00,WSW,249,0.0,0.0,96,0.00,,---,0.01,VWS V14.01,2013-08-12 04:00:00,
2013-08-11 23:01:00,52.9,51.8,28.00,WSW,249,0.0,0.0,96,0.00,,---,0.01,VWS V14.01,2013-08-12 04:01:00,
2013-08-11 23:03:00,52.8,51.7,28.00,WSW,249,0.0,0.0,96,0.00,,---,0.01,VWS V14.01,2013-08-12 04:03:00,
2013-08-11 23:04:00,52.8,51.7,28.00,WSW,249,0.0,0.0,96,0.00,,---,0.01,VWS V14.01,2013-08-12 04:04:00,
2013-08-11 23:09:00,52.7,51.6,28.00,WSW,249,0.0,0.0,96,0.00,,---,0.01,VWS V14.01,2013-08-12 04:09:00,
2013-08-11 23:14:00,52.4,51.3,28.00,WSW,249,0.0,0.0,96,0.00,,---,0.01,VWS V14.01,2013-08-12 04:14:00,
2013-08-11 23:20:00,52.1,51.0,28.00,WSW,249,0.0,0.0,96,0.00,,---,0.01,VWS V14.01,2013-08-12 04:20:00,
2013-08-11 23:25:00,51.9,50.8,28.00,WSW,249,0.0,0.0,96,0.00,,---,0.01,VWS V14.01,2013-08-12 04:25:00,
2013-08-11 23:30:00,51.8,50.7,28.00,WSW,249,0.0,0.0,96,0.00,,---,0.01,VWS V14.01,2013-08-12 04:30:00,
2013-08-11 23:35:00,51.7,50.6,28.00,WSW,249,0.0,0.0,96,0.00,,---,0.01,VWS V14.01,2013-08-12 04:35:00,
2013-08-11 23:41:00,51.6,50.5,28.00,WSW,249,0.0,0.0,96,0.00,,---,0.01,VWS V14.01,2013-08-12 04:41:00,
2013-08-11 23:46:00,52.2,51.4,28.00,NNW,329,0.0,5.0,97,0.00,,---,0.01,VWS V14.01,2013-08-12 04:46:00,
2013-08-11 23:51:00,54.4,53.6,28.01,NW,325,0.0,1.0,97,0.00,,---,0.01,VWS V14.01,2013-08-12 04:51:00,
2013-08-11 23:56:00,55.2,54.4,28.01,NW,311,1.0,4.0,97,0.00,,---,0.01,VWS V14.01,2013-08-12 04:56:00,